Other Public Products
Issued by NWS Grand Forks, ND

Home | Current Version | Previous Version | Text Only | Print | Product List | Glossary On
Versions: 1 2 3 4 5 6 7 8 9 10 11 12 13 14 15 16 17 18 19 20 21 22 23 24 25 26 27 28 29 30 31 32 33 34 35 36 37 38 39 40 41 42 43 44 45 46 47 48 49 50
000
FPUS83 KFGF 190131
OPUFGF
PRAIRIE TO PINES WEATHER ROUNDUP
NATIONAL WEATHER SERVICE EASTERN NORTH DAKOTA/GRAND FORKS ND
700 PM CST THU DEC 18 2014

 **SATELLITE DATA USED TO AUGMENT SKY COVER AT AUTOMATED STATIONS**
 *****  WEATHER ACROSS EASTERN NORTH DAKOTA  *****

CITY           SKY/WX    TMP DP  RH WIND       PRES   REMARKS
GRAND FORKS    CLOUDY    19  15  84 S9        30.16F WCI   8
GRAND FORKS AF CLOUDY    19  18  96 S10       30.15F WCI   7
GRAND CITY NWS NOT AVBL
BUXTON           N/A     19  15  86 SE10        N/A  WCI   7
DEVILS LAKE    CLOUDY    21  12  68 S12       30.04S WCI   9
FARGO          CLOUDY    21  15  78 S13       30.18S WCI   9
WAHPETON ARPT  CLOUDY    21  16  79 SE7       30.19S WCI  13
$$

 *****  WEATHER ACROSS CENTRAL AND WESTERN NORTH DAKOTA  *****

CITY           SKY/WX    TMP DP  RH WIND       PRES   REMARKS
JAMESTOWN      CLOUDY    22  20  92 S12       30.07S WCI  10
BISMARCK       CLOUDY    26  24  92 S8        30.03S WCI  18
MINOT          CLOUDY    23  19  85 SE6       29.99R WCI  16
MINOT AFB      CLOUDY    22  22  99 SE6       29.99R WCI  15
GARRISON         N/A     26  22  84 NW3       29.98S
WILLISTON      CLOUDY    28  26  92 S5        29.95S WCI  23
DICKINSON      CLEAR     21  18  88 S6        29.93S FOG     WCI  13
HETTINGER      CLEAR     26  24  92 CALM      29.97S
$$

 *****  OTHER OBSERVATIONS NORTHEAST NORTH DAKOTA  *****

CITY           SKY/WX    TMP DP  RH WIND       PRES   REMARKS
WALHALLA         N/A     18  18 100 S8        30.13S WCI   7
LANGDON        CLOUDY    19  16  86 S12       30.06R WCI   7
CAVALIER       CLOUDY    19  14  79 S9        30.14F WCI   9
GRAFTON        NOT AVBL
CANDO          CLOUDY    19  19 100 S9        30.05F FOG     WCI   9
FORT TOTTEN    NOT AVBL
ROLLA          CLOUDY    18  18 100 S9        30.02S FOG     WCI   6
RUGBY          CLOUDY    19  19 100 SE7       30.02S FOG     WCI  10
 ***** THE ABOVE OBSERVATIONS ARE NON NWS ARE NOT QUALITY
        CONTROLLED AND MAY MIS-REPORT RAIN FOR SNOW...
$$

 *****  OTHER OBSERVATIONS SOUTHEAST NORTH DAKOTA *****

CITY           SKY/WX    TMP DP  RH WIND       PRES   REMARKS
COOPERSTOWN    NOT AVBL
VALLEY CITY    CLOUDY    19  19 100 S9        30.10F WCI   9
OAKES          LGT SNOW  23  23 100 S8        30.12S WCI  14
GWINNER        CLOUDY    23  23 100 MISG      30.14S
BUFFALO        NOT AVBL
WYNDMERE         N/A     19  18  93 S8          N/A  WCI   9
 ***** THE ABOVE OBSERVATIONS ARE NON NWS ARE NOT QUALITY
       CONTROLLED AND MAY MIS-REPORT RAIN FOR SNOW...
$$

  *****  WEATHER ACROSS NORTHERN MINNESOTA  *****

CITY           SKY/WX    TMP DP  RH WIND       PRES   REMARKS
FLAG ISLAND    CLEAR     16  12  86 S10       30.18F WCI   3
WARROAD        PTCLDY    12   9  85 SE6       30.19S WCI   3
ROSEAU         CLOUDY    18  12  79 SE7       30.18S WCI   8
HALLOCK        MOCLDY    19  16  86 S10       30.15F WCI   8
THF RVR FALLS  CLOUDY    19  16  86 S7        30.17R WCI  10
HALSTAD          N/A     20  14  76 S10         N/A  WCI   9
FOSSTON        CLOUDY    18  16  93 SE6       30.16S WCI   9
BAUDETTE       CLOUDY    19  14  81 S8        30.19S WCI   9
WASKISH        CLOUDY    18  16  93 CALM      30.20S
CROOKSTON      MOCLDY    19  16  86 S9        30.18F WCI   9
$$
  *****  WEATHER ACROSS CENTRAL AND WEST MINNESOTA  *****

CITY           SKY/WX    TMP DP  RH WIND       PRES   REMARKS
BEMIDJI        CLOUDY    18  14  86 SE10      30.17F WCI   6
PARK RAPIDS    CLOUDY    18  13  80 SE6       30.18S WCI  10
WADENA         CLOUDY    18  12  79 NW8       30.19S WCI   7
DETROIT LAKES  CLOUDY    21  18  86 SE10      30.17S WCI  10
MOORHEAD       CLOUDY    21  18  86 S13       30.18F WCI   9
FERGUS FALLS   CLOUDY    19  14  79 SE10      30.22S WCI   8
ELBOW LAKE     CLOUDY    19  15  84 SE12      30.19S WCI   7
MORRIS MN      CLOUDY    19  16  86 SE14      30.19S WCI   6
STAPLES        CLOUDY    18  12  79 SE6       30.21R WCI   9
WHEATON        CLOUDY    18  16  93 SE12      30.20F WCI   5
$$
  *****  WEATHER ELSEWHERE ACROSS MINNESOTA  *****

CITY           SKY/WX    TMP DP  RH WIND       PRES   REMARKS
DULUTH         CLOUDY    24  17  74 CALM      30.21S
INTRNTL FALLS  CLOUDY    20  16  84 E5        30.22S WCI  13
ELY            CLOUDY    21  19  93 CALM      30.22S
CLOQUET        CLOUDY    23  19  86 CALM      30.21F
BRAINERD       CLOUDY    19  15  84 VRB5      30.22S WCI  12
HIBBING        CLOUDY    23  18  81 CALM      30.21F
ALEXANDRIA     CLOUDY    19  13  77 SE8       30.20R WCI   9
SAINT CLOUD    CLOUDY    20  14  77 CALM      30.24S
MINNEAPOLIS    CLOUDY    20  15  81 SE3       30.27S
$$

  *****  WEATHER ACROSS SOUTH DAKOTA  *****

CITY           SKY/WX    TMP DP  RH WIND       PRES   REMARKS
SIOUX FALLS    CLOUDY    27  23  85 S7        30.18R WCI  19
BROOKINGS      NOT AVBL
WATERTOWN      CLOUDY    23  21  92 S8        30.12S WCI  14
HURON          CLOUDY    26  23  88 S7        30.14S WCI  18
SISSETON         N/A     20  18  92 S10       30.17S WCI   9
ABERDEEN       CLOUDY    26  22  84 S9        30.13S WCI  17
MITCHELL       CLOUDY    27  24  89 SE8       30.16S WCI  19
PIERRE         CLOUDY    28  24  85 S6        30.06S WCI  22
MOBRIDGE       CLOUDY    28  25  88 S8        30.02S WCI  20
RAPID CITY     CLEAR     27  22  81 CALM      30.00R
$$

  *****  SOME WEATHER IN NEARBY STATES *****

CITY           SKY/WX    TMP DP  RH WIND       PRES   REMARKS
GLASGOW MT     CLEAR     24  21  88 NE5       29.90F WCI  18
GREAT FALLS MT MOCLDY    36  26  67 SW17G23   29.90S
CHEYENNE WY    MOCLDY    27  17  66 W8        30.03R WCI  19
SCOTTSBLUFF NE CLOUDY    16  13  88 S3        30.05R
OMAHA NE       CLOUDY    31  26  82 SE6       30.23S
DES MOINES IA  CLOUDY    29  22  75 SE5       30.26R WCI  24
DAVENPORT IA   CLOUDY    23  17  78 CALM      30.28R
CHICAGO IL     CLOUDY    28  19  69 N7        30.24S WCI  21
EAU CLAIRE WI  CLOUDY    24  18  77 CALM      30.27R
LA CROSSE WI   CLOUDY    26  18  71 N3        30.28S
$$

  *****  SOME NATIONAL WEATHER *****

CITY           SKY/WX    TMP DP  RH WIND       PRES   REMARKS
LA GUARDIA NY  MOCLDY    39  28  64 NW16      29.97R
RALEIGH NC     MOCLDY    43  26  51 CALM      30.11S
ATLANTA GA     MOCLDY    47  33  58 NW9       30.13S
NEW ORLEANS LA CLOUDY    59  54  83 E12       30.13R
OKLAHOMA CITY  DRIZZLE   43  39  87 NE10      30.18R FOG
ALBUQUERQUE NM CLOUDY    40  28  62 NW5       30.11R
SALT LAKE CITY MOCLDY    37  32  82 W6        30.16R
LOS ANGELES CA PTCLDY    58  51  78 SW6       30.16R
BOISE ID       CLOUDY    44  33  65 SE10      30.08S
SEATTLE WA     LGT RAIN  48  43  82 E12       29.77F
$$

*** WEATHER ACROSS MANITOBA...SASKATCHEWAN AND ONTARIO ***
                ***ONTARIO***

CITY           SKY/WX    TMP DP  RH WIND       PRES   REMARKS
GERALDTON      CLEAR      0  -4  85 SW2       30.26S
THUNDER BAY    CLEAR      5   1  85 SW7       30.31S WCI  -7
SIOUX LOOKOUT  FLURRIES  12  10  92 SE2       30.23F
TORONTO        CLOUDY    27  19  74 NW17      30.11S WCI  14
BIG TROUT LK   CLEAR      1  -2  85 SW7       30.19S WCI -11
PICKLE LAKE    PTCLDY     5  -2  72 S8        30.22F WCI  -8
DRYDEN         CLOUDY    16  14  93 S6        30.21F WCI   7
KENORA         MOCLDY    12   9  85 S8        30.18  WCI   1
$$
                *** MANITOBA***

CITY           SKY/WX    TMP DP  RH WIND       PRES   REMARKS
BRANDON        FLURRIES  18  16  93 SE3       30.05S
DAUPHIN        MOCLDY     7   3  85 SE2       30.04F
ISLAND LAKE    CLEAR     10   7  85 S6        30.12S WCI   1
PILOT MOUND      N/A     18  18 100 S10         N/A  WCI   6
THE PAS        FLURRIES  12  10  92 S9        29.98S WCI   0
THOMPSON       FLURRIES   7   3  85 S6        30.00S WCI  -3
WINNIPEG       CLOUDY    19  14  79 S14       30.14F WCI   6
LYNN LAKE      LGT SNOW  12  12 100 SW3       29.89S
CHURCHILL      CRYSTALS   1  -2  85 S6        30.00F WCI -10
GILLAM         FLURRIES   3   0  85 SW8       30.04F WCI -10
$$
                ***SASKATCHEWAN***

CITY           SKY/WX    TMP DP  RH WIND       PRES   REMARKS
ESTEVAN        FLURRIES  23  23 100 SW7       29.95S WCI  15
KINDERSLEY     FOG       12  10  92 VRB2      29.87  VSB 1/8
LLOYDMINSTER   FOG       16  14  93 NW3       29.86  VSB 1/8
PRINCE ALBERT  LGT SNOW  19  19 100 N2        29.90S FOG
REGINA         FLURRIES  25  25 100 S9        29.90S WCI  15
YORKTON        CLOUDY    18  14  86 SE9       29.95S WCI   6


USA.gov is the U.S. government's official web portal to all federal, state and local government web resources and services.